SL-3 R/B

Last updated on Mon Jun 22 2026 00:02:13 GMT+0000 (Coordinated Universal Time)

1 14208U 83075B 26171.44668627 .00007944 00000+0 19656-3 0 9991 2 14208 97.6107 180.0842 0019624 216.5803 143.4104 15.40541433345961
UTC large
Height (km)
Speed (km/s)
/
Latitude / Longitude
Inclination (degrees)
Orbital Period (minutes)
Azimuth
Elevation
Range (km)
Doppler Factor

Next 0 passes for location: London (51.5072 / 0.1276)

No passes found over London.
SL-3 R/B